Dewpoint
61 60 60 60 60 60 60 59 58 58 58 58 58 58 59 60 59 59 59 58 56 56 56 55 55 56 53 47 43 50 56 56 51 51 46 44 39 36 33 31 36 35 33 34 35 38 40
60 60 60 59 59 60 60 59 59 58 58 57 57 58 59 59 59 59 57 56 55 54 54 54 54 55 50 41 46 50 49 49 49 49 47 44 40 41 40 42 40 40 41 42 42 41 41
60 60 59 59 59 59 59 59 58 58 57 57 57 58 58 59 58 57 56 54 54 53 54 54 54 52 49 41 48 49 48 48 49 47 44 48 47 44 44 42 44 43 41 40 39 39 39
56 60 60 59 58 58 58 58 58 58 57 57 58 58 57 57 57 56 55 53 53 53 53 54 55 50 43 47 49 48 48 47 49 49 47 49 48 46 44 44 42 39 39 34 36 37 37
56 56 55 59 58 58 58 58 57 57 57 57 58 57 57 56 55 54 52 52 51 52 52 54 50 48 38 47 43 47 49 47 50 50 49 48 47 43 43 40 38 40 33 36 35 38 37
55 56 56 56 59 58 58 58 57 57 57 57 58 57 56 55 53 52 51 50 51 50 50 50 49 40 39 31 41 48 50 50 48 50 48 48 46 43 41 37 26 31 36 35 36 37 37
55 56 56 55 59 58 58 58 57 57 57 57 57 56 55 53 52 50 49 48 41 43 47 36 38 31 34 41 42 43 50 48 48 46 43 46 42 39 40 39 35 32 33 34 36 37 37
54 55 56 55 55 58 59 58 57 57 57 57 56 55 54 53 51 50 47 40 36 37 34 43 43 43 42 43 34 36 39 38 44 41 44 42 40 41 41 41 38 37 36 36 37 38 39
52 55 55 55 55 55 58 58 57 57 57 57 56 54 53 52 50 45 41 37 44 42 25 28 39 39 37 41 35 35 34 33 37 40 41 37 33 41 42 41 41 40 39 38 37 38 40
52 54 54 54 55 55 55 58 57 57 56 56 55 53 52 50 45 42 38 43 46 42 17 14 30 37 41 39 28 39 35 29 32 23 39 37 39 36 34 35 38 33 39 40 39 38 30
52 49 52 54 54 54 54 56 57 57 56 55 54 53 51 47 42 38 42 45 43 33 24 24 27 37 41 28 31 38 39 35 28 29 31 21 36 39 38 37 38 35 38 37 37 36 35
50 48 51 54 54 53 53 54 57 56 56 54 53 52 50 48 44 42 44 42 39 28 22 15 30 33 36 37 31 37 36 35 34 32 31 28 33 30 32 37 39 36 34 32 32 32 27
47 48 52 53 52 53 53 54 56 56 55 53 52 51 48 48 41 44 45 39 25 24 24 22 26 31 25 25 24 33 35 35 31 27 28 30 30 29 32 30 30 29 27 26 23 27 20
46 48 53 53 52 51 52 56 56 55 53 52 51 50 49 48 48 47 43 32 22 27 19 26 25 25 23 26 27 28 27 32 34 34 28 25 21 32 34 32 31 31 29 26 16 14 16
45 48 52 55 55 54 55 55 53 52 51 51 50 47 46 48 48 48 37 27 27 26 24 25 26 24 26 26 26 28 34 32 33 35 29 30 28 33 28 30 34 32 29 31 31 30 28
44 46 51 52 54 54 53 52 51 51 51 50 45 43 44 48 49 44 34 30 30 28 27 27 28 29 26 25 25 23 31 34 32 36 37 33 27 32 28 31 26 26 29 28 31 25 23
43 46 52 51 51 51 51 51 51 50 49 47 43 35 45 48 48 38 30 31 32 26 28 30 32 31 29 26 25 24 29 33 34 32 33 32 28 22 23 23 20 22 25 29 27 28 22
43 45 52 51 51 50 50 50 50 49 48 44 39 31 45 47 33 32 31 32 32 30 31 31 30 29 28 25 23 21 23 26 34 33 30 32 30 25 20 26 31 29 32 30 23 18 19
43 44 48 51 51 50 50 50 49 49 47 41 32 33 44 44 28 29 33 32 32 29 29 31 30 31 32 27 27 26 28 35 35 32 31 31 27 20 14 28 30 30 32 31 29 27 20
43 43 44 47 51 51 50 50 50 49 46 41 35 30 34 37 34 32 30 30 30 32 31 31 34 33 31 30 30 29 30 34 35 34 33 32 27 22 16 17 18 19 19 22 26 20 18
43 43 44 45 49 50 50 50 48 47 45 40 34 32 34 29 29 30 31 31 30 30 32 32 32 30 29 27 28 28 28 30 31 32 33 32 25 26 24 23 22 22 22 19 15 19 18
42 44 42 44 45 47 49 48 47 46 44 38 32 32 33 33 30 29 29 29 27 29 31 31 29 33 30 27 26 26 29 29 27 29 32 35 26 24 19 20 17 13 12 12 11 10 13
39 41 43 42 44 45 46 48 47 45 42 35 37 37 35 32 30 28 28 27 27 29 28 30 30 29 29 30 32 30 31 31 29 28 29 29 26 21 16 9 9 8 5 7 8 11 12
41 39 41 43 41 44 44 45 46 44 41 39 38 36 32 30 29 28 28 28 28 26 28 30 30 27 29 33 33 32 32 32 32 30 28 25 23 22 15 9 5 3 16 22 25 24 27
41 40 40 42 43 42 44 45 45 44 43 39 39 37 33 29 30 28 29 28 28 30 29 31 32 31 33 27 21 17 16 14 18 28 28 23 20 17 12 10 9 9 18 22 20 18 25
39 40 41 41 43 44 43 44 45 44 43 41 39 40 36 30 28 29 28 28 26 27 30 31 33 34 27 20 19 13 9 7 8 11 23 25 21 17 17 12 6 6 25 25 25 18 25
43 42 42 42 43 44 44 43 44 45 43 41 39 40 36 30 30 30 28 28 30 29 26 28 30 30 24 21 18 16 12 12 8 5 17 21 20 18 16 13 12 15 20 24 12 13 21
43 43 43 44 44 44 44 44 44 44 42 39 38 40 36 32 32 33 34 30 29 28 27 27 28 27 25 23 20 17 17 18 14 12 10 13 16 16 17 14 10 19 24 19 16 23 24
43 44 44 44 44 44 44 44 44 43 42 40 35 39 39 34 32 36 36 35 31 30 28 27 28 26 27 23 20 18 18 18 18 12 17 13 20 18 19 18 21 28 22 22 26 26 26
Lifted_Index
1 2 2 3 3 4 5 6 6 7 7 7 7 7 7 7 7 6 6 6 6 6 6 7 7 7 6 6 5 6 7 7 7 7 6 6 6 6 6 6 5 5 5 6 6 6 6
1 1 2 2 3 4 5 5 6 6 7 7 7 7 7 6 6 6 6 5 5 6 6 7 7 7 6 5 6 6 7 7 7 7 6 6 6 6 6 6 6 6 6 6 6 6 6
2 2 1 2 3 3 4 4 5 5 6 6 7 6 6 6 5 5 5 5 5 6 7 8 8 7 6 6 6 7 7 7 7 7 7 7 6 6 6 6 6 6 6 6 6 6 6
5 3 2 2 2 3 4 4 5 5 6 6 6 5 5 5 4 4 5 5 6 7 8 8 8 7 6 7 7 7 7 7 7 7 7 7 7 7 6 6 6 6 6 5 6 6 6
7 6 4 3 2 3 4 4 5 5 5 5 5 4 4 4 4 4 5 6 7 8 9 9 8 6 6 7 8 7 7 6 6 6 6 7 7 7 7 6 6 5 5 5 5 6 6
7 7 6 4 2 2 3 4 5 5 5 5 5 4 3 3 3 4 5 6 7 8 9 9 8 6 7 7 8 7 6 6 5 5 5 6 6 7 6 6 5 5 5 5 5 6 6
8 8 7 5 4 3 3 4 5 5 5 5 5 3 3 2 3 3 4 5 6 6 7 7 7 7 8 8 8 8 7 6 5 5 5 5 6 6 6 5 5 5 5 5 5 6 6
8 8 7 7 6 4 3 3 3 4 5 5 5 3 3 2 3 3 4 4 6 6 5 6 7 8 9 9 8 8 8 8 6 5 5 5 5 5 5 5 5 5 5 5 5 5 5
8 7 8 8 7 6 4 2 2 3 4 5 4 3 3 3 3 4 4 5 7 7 5 5 6 8 9 9 8 8 9 9 7 6 5 5 5 5 5 5 4 4 4 4 4 4 4
8 8 8 8 8 7 5 3 2 2 3 3 4 3 3 3 4 4 5 7 10 8 5 4 6 8 9 9 8 9 10 9 8 6 5 6 6 5 5 5 4 4 4 4 4 4 3
9 9 9 8 8 7 6 4 3 2 2 2 3 3 4 4 5 5 6 9 10 7 4 4 7 9 9 9 9 9 9 8 7 7 7 6 6 6 5 5 4 4 4 4 4 4 3
9 9 9 8 8 7 6 5 3 2 2 2 3 3 5 6 6 7 9 10 8 5 3 4 7 9 9 9 9 9 8 8 7 7 7 7 7 7 6 6 5 5 5 4 4 3 3
8 8 8 7 7 7 6 5 3 2 2 3 4 5 7 8 8 9 10 9 5 3 3 5 6 8 8 8 9 9 8 8 8 7 6 7 7 7 7 6 6 5 5 3 2 2 1
6 7 7 6 6 5 5 4 3 3 3 5 6 8 10 11 10 10 9 5 2 2 3 5 6 7 7 8 9 9 9 8 8 7 6 5 6 6 7 6 6 5 4 3 1 1 1
5 5 6 5 4 4 3 3 3 4 6 7 9 11 12 12 11 10 7 4 2 3 4 5 6 5 6 7 8 8 8 8 8 8 7 5 5 6 7 6 5 5 4 3 2 1 1
5 5 6 5 4 3 3 3 5 7 9 10 11 12 13 12 12 10 6 4 4 6 7 6 5 5 5 6 7 8 8 8 8 8 7 6 6 7 7 7 6 5 5 4 3 2 1
6 5 6 6 6 5 6 7 8 10 11 12 12 12 12 13 12 10 7 6 7 8 9 8 7 6 6 6 7 7 7 8 8 8 8 7 7 7 7 7 7 6 6 6 4 3 2
6 6 5 6 7 7 8 9 10 11 12 12 11 11 12 12 10 9 8 8 9 9 9 8 7 7 6 6 6 6 7 8 8 8 8 8 7 6 6 7 7 7 7 6 5 4 3
7 6 5 5 6 7 9 9 10 11 12 11 10 10 11 10 9 8 8 9 9 9 8 8 7 7 6 6 6 6 7 7 7 7 7 7 7 6 6 7 7 7 7 6 4 3 3
8 7 6 6 6 6 7 8 9 10 10 9 8 8 9 9 8 8 8 7 7 8 8 7 7 7 7 6 7 7 7 7 7 6 6 6 6 6 5 6 7 7 6 5 3 2 2
8 7 7 6 6 6 6 7 8 8 9 8 7 7 7 7 7 7 7 6 6 6 7 7 7 7 7 7 7 7 7 7 6 6 6 6 6 5 5 5 5 5 5 3 2 2 2
7 7 7 7 6 6 5 6 7 8 8 7 6 6 7 6 6 6 6 6 6 6 6 6 7 7 7 7 6 6 6 6 6 6 5 5 5 5 4 3 3 3 3 3 3 2 2
7 7 7 6 6 6 5 6 6 7 7 6 6 6 6 5 5 5 5 5 5 6 6 6 7 7 7 7 6 6 6 6 6 6 5 5 4 3 3 2 2 3 3 3 3 2 2
7 7 7 6 6 6 5 5 6 6 6 6 6 6 5 4 4 4 4 5 5 5 6 6 7 7 6 6 6 6 6 6 6 5 4 3 2 2 2 2 2 3 3 3 2 2 2
6 6 6 6 6 6 6 5 6 6 6 6 6 5 4 4 4 4 4 5 5 5 6 6 6 6 6 5 5 5 5 5 5 4 4 3 2 2 2 2 2 3 3 3 3 2 2
6 6 6 6 6 6 6 6 6 6 6 6 6 5 5 4 4 4 4 4 5 5 5 5 5 5 5 5 5 5 5 4 4 4 4 3 3 3 3 2 3 3 3 3 3 3 3
5 5 5 6 6 6 6 6 6 6 6 5 5 5 4 4 4 4 4 4 5 5 5 5 5 5 5 5 5 4 4 4 3 4 4 4 4 4 3 3 3 3 3 3 3 3 3
4 4 4 4 5 5 5 6 6 6 5 5 5 5 4 4 4 5 5 5 5 5 4 4 4 4 4 4 4 4 3 3 4 4 4 4 4 4 4 4 3 3 3 3 3 4 4
2 2 3 3 4 4 5 5 6 6 5 5 5 5 5 4 4 5 5 5 5 4 4 4 4 4 4 4 4 3 3 3 4 4 3 3 3 4 4 4 3 3 3 3 3 3 3